Skip Page Navigation
NASA JPL Caltech
NASA Logo - Jet Propulsion Laboratory + View the NASA Portal
+ Center for Near-Earth Object Studies
JPL Home Earth Solar System Stars & Galaxies Technology
JPL Solar System Dynamics
BODIES ORBITS EPHEMERIDES TOOLS PHYSICAL DATA DISCOVERY FAQ SITE MAP
JPL Small-Body Database Browser
Search: [ help ]  
26314 Skvorecky (1998 UJ1)
Classification: Main-belt Asteroid          SPK-ID: 2026314
Ephemeris | Orbit Diagram | Orbital Elements | Mission Design | Physical Parameters | Discovery Circumstances ]

[ hide orbit diagram ]

For accurate long-term ephemerides, please instead use our Horizons system.This orbit viewer was implemented using two-body methods, and hence should not be used for determining accurate long-term trajectories (over several years or decades) or planetary encounter circumstances.


Orbital Elements at Epoch 2459200.5 (2020-Dec-17.0) TDB
Reference: JPL 18 (heliocentric ecliptic J2000)
 Element Value Uncertainty (1-sigma)   Units 
e .1676596334301621 2.8337e-08  
a 2.533873834525413 1.0986e-08 au
q 2.109045476270603 7.3455e-08 au
i 7.177886736873776 4.8387e-06 deg
node 72.05719015497066 8.1458e-05 deg
peri 198.4132866169359 8.8832e-05 deg
M 267.0712198503751 3.8772e-05 deg
tp 2459580.797650890216
(2022-Jan-01.29765089)
0.00015915 TDB
period 1473.24815950498
4.03
9.5816e-06
2.623e-08
d
yr
n .2443580178107685 1.5892e-09 deg/d
Q 2.958702192780224 1.2828e-08 au
  Orbit Determination Parameters
   # obs. used (total)      915  
   data-arc span      8752 days (23.96 yr)  
   first obs. used      1997-04-07  
   last obs. used      2021-03-24  
   planetary ephem.      DE441  
   SB-pert. ephem.      SB441-N16  
   condition code      0  
   norm. resid. RMS      .56286  
   source      ORB  
   producer      Otto Matic  
   solution date      2021-May-04 03:50:47  

Additional Information
 Earth MOID = 1.09259 au 
 Jupiter MOID = 2.1375 au 
 T_jup = 3.419 
[ hide covariance matrix ]
Orbital Elements at Epoch 2457023.5 (2015-Jan-01.0) TDB
Reference: JPL 18 (heliocentric ecliptic J2000)
 Element Value Uncertainty (1-sigma)   Units 
e .1685701254614283 2.8121e-08  
q 2.10611877017363 7.2895e-08 au
tp 2456634.932982355338
(2013-Dec-08.43298236)
0.0001556 TDB
node 72.10844737408523 8.1498e-05 deg
peri 198.4327609413376 8.8815e-05 deg
i 7.177396925825013 4.8369e-06 deg
  Orbit Determination Parameters
   # obs. used (total)      915  
   data-arc span      8752 days (23.96 yr)  
   first obs. used      1997-04-07  
   last obs. used      2021-03-24  
   planetary ephem.      DE441  
   SB-pert. ephem.      SB441-N16  
   condition code      0  
   norm. resid. RMS      .56286  
   source      ORB  
   producer      Otto Matic  
   solution date      2021-May-04 03:50:47  

Additional Information
 Jupiter MOID = 2.1375 au 
 T_jup = 3.419 
Orbit Covariance (6×6)
  e q tp node peri i
e 7.907751433123978E-16 -2.034162566524171E-15 -1.100088639527032E-12 -3.208720794104026E-14 -2.48091705556311E-13 1.43985346131863E-15
q -2.034162566524171E-15 5.3137034386995E-15 2.878464558868968E-12 8.697662155261417E-14 6.507465476525006E-13 -3.721702556073468E-15
tp -1.100088639527032E-12 2.878464558868968E-12 2.421158338509519E-8 5.218078821733406E-10 5.717649680358825E-9 -2.632120157518673E-11
node -3.208720794104026E-14 8.697662155261417E-14 5.218078821733406E-10 6.641887623017932E-9 -6.455765658621573E-9 -2.80917027394562E-10
peri -2.48091705556311E-13 6.507465476525006E-13 5.717649680358825E-9 -6.455765658621573E-9 7.88810068110109E-9 2.720107805108307E-10
i 1.43985346131863E-15 -3.721702556073468E-15 -2.632120157518673E-11 -2.80917027394562E-10 2.720107805108307E-10 2.339534606358666E-11

Ephemeris | Orbit Diagram | Orbital Elements | Mission Design | Physical Parameters | Discovery Circumstances ]

Physical Parameter Table
Parameter Symbol Value Units Sigma Reference Notes
absolute magnitude H 15.3   n/a MPO452537  
diameter diameter 2.148 km 0.254 urn:nasa:pds:neowise_diameters_albedos::2.0[mainbelt] (http://adsabs.harvard.edu/abs/2011ApJ...741...68M)  
geometric albedo albedo 0.383   0.133 urn:nasa:pds:neowise_diameters_albedos::2.0[mainbelt] (http://adsabs.harvard.edu/abs/2011ApJ...741...68M)  

26314 Škvorecký           Discovered 1998 Oct. 16 by J. Ticha and M. Tichy at Klet.
Josef Škvorecký (b. 1924) is one of the preeminent Czech writers of the post-World War II generation known for mordant humor and sardonic irony. Together with his wife Zdena Salivarová, he operated The Sixty-Eight Publishers in Toronto, the main Czech exile publishing house.
NOTE: some special characters may not display properly (any characters within {} are an attempt to place the proper accent above a character)
Reference: 20010902/MPCPages.arcLast Updated: 2009-05-11

Alternate Designations
 1998 UJ1 = 1997 GP38 
Ephemeris | Orbit Diagram | Orbital Elements | Mission Design | Physical Parameters | Discovery Circumstances ]
ABOUT SSD CREDITS/AWARDS PRIVACY/COPYRIGHT GLOSSARY LINKS
FirstGov 2021-May-18 18:00 UT
(server date/time)  
NASA Home Page
Site Manager:   Ryan S. Park
Webmaster  Alan B. Chamberlin